Bei Facebook empfehlenBei Twitter postenGoogle plusPinterest

Das Wetter im Erzgebirge am 14.11.2016

Wetter und Klima am 14.11.2016 Holzhau im Erzgebirge (630m ü.NN)
Letzte gemessene Temperatur und Uhrzeit der Messung23:45:00 Uhr-3.40 °C
Temperatur (Maximum / Höchstwert) und Uhrzeit der Messung13:45:00 Uhr2.80 °C
Temperatur (Minimum / Tiefstwert) und Uhrzeit der Messung03:00:00-9.90 °C
Errechneter Absolutwert der Temperaturschwankungen zwischen Tmin und Tmax des Tages12.70 K
Errechnete Tagesmitteltemperatur-4.64063 °C
Gesamt - Niederschlag des Tages (in flüssiger Form)0.00 Liter / m²
Luftdruck (Maximum / Höchstwert) und Zeitpunkt der Messung12:00:00 Uhr1028.10 hPa
Luftdruck (Minimum / Tiefstwert) und Zeitpunkt der Messung23:30:00 Uhr1024.90 hPa
Errechneter Absolutwert der Luftdruckschwankungen des Tages3.20 hPa
Höchste gemessene Windgeschwindigkeit und Uhrzeit der Messung23:45:00 Uhr0.00 km/h
Errechnete Windhäufigkeit in Relation zu den Messwerten des Tages0.00000 %
Niedrigste Windkühle (Windchill) und Zeitpunkt der Messung03:00:00 Uhr-9.90 °C
Taupunkt (Maximum / Höchstwert) und Uhrzeit der Messung12:00:00 Uhr0.60 °C
Taupunkt (Minimum / Tiefstwert) und Uhrzeit der Messung03:00:00-11.40 °C
Anzahl der automatisch eingelesenen Messwerte 96

Detaillierte Wetter- und Klima- Messwerte für den 14.11.2016 in Holzhau im Erzgebirge (630m ü.NN)
ZeitTemperaturLuftdruckRel. LuftfeuchteWindWindrichtungWindchillTaupunktNiederschlag l/m²
23:45:00-3.40 °C1025.00 hPa90.00 %-5.00 °C 
23:30:00-3.70 °C1024.90 hPa90.00 %-5.30 °C 
23:15:00-3.40 °C1025.00 hPa90.00 %-5.00 °C 
23:00:00-3.40 °C1025.10 hPa90.00 %-5.00 °C 
22:45:00-3.50 °C1025.00 hPa90.00 %-5.10 °C 
22:30:00-3.40 °C1025.20 hPa90.00 %-5.00 °C 
22:15:00-3.20 °C1025.40 hPa90.00 %-4.80 °C 
22:00:00-3.10 °C1025.60 hPa90.00 %-4.70 °C 
21:45:00-3.20 °C1025.70 hPa90.00 %-4.80 °C 
21:30:00-3.60 °C1025.70 hPa90.00 %-5.20 °C 
21:15:00-3.60 °C1025.80 hPa90.00 %-5.20 °C 
21:00:00-3.80 °C1026.10 hPa89.00 %-5.50 °C 
20:45:00-3.90 °C1026.10 hPa89.00 %-5.60 °C 
20:30:00-4.20 °C1026.30 hPa89.00 %-5.90 °C 
20:15:00-4.60 °C1026.10 hPa89.00 %-6.30 °C 
20:00:00-5.20 °C1026.50 hPa88.00 %-7.10 °C 
19:45:00-5.70 °C1026.30 hPa87.00 %-7.70 °C 
19:30:00-5.90 °C1026.50 hPa87.00 %-7.90 °C 
19:15:00-6.20 °C1026.60 hPa86.00 %-8.40 °C 
19:00:00-6.20 °C1026.60 hPa86.00 %-8.40 °C 
18:45:00-6.10 °C1026.50 hPa85.00 %-8.50 °C 
18:30:00-5.80 °C1026.80 hPa85.00 %-8.20 °C 
18:15:00-5.60 °C1026.60 hPa84.00 %-8.10 °C 
18:00:00-5.60 °C1026.80 hPa84.00 %-8.10 °C 
17:45:00-5.20 °C1026.70 hPa83.00 %-7.90 °C 
17:30:00-5.10 °C1026.70 hPa82.00 %-8.00 °C 
17:15:00-4.70 °C1026.50 hPa81.00 %-7.80 °C 
17:00:00-4.40 °C1026.60 hPa81.00 %-7.50 °C 
16:45:00-4.10 °C1026.50 hPa80.00 %-7.40 °C 
16:30:00-3.20 °C1026.70 hPa79.00 %-6.70 °C 
16:15:00-2.40 °C1026.80 hPa78.00 %-6.10 °C 
16:00:00-1.50 °C1026.80 hPa77.00 %-5.40 °C 
15:45:00-0.50 °C1026.80 hPa76.00 %-4.60 °C 
15:30:000.60 °C1026.80 hPa75.00 %-3.30 °C 
15:15:001.30 °C1026.80 hPa74.00 %-2.80 °C 
15:00:001.90 °C1026.90 hPa74.00 %-2.20 °C 
14:45:002.30 °C1027.30 hPa74.00 %-1.80 °C 
14:30:002.40 °C1027.20 hPa74.00 %-1.70 °C 
14:15:002.40 °C1027.40 hPa74.00 %-1.70 °C 
14:00:002.40 °C1027.40 hPa74.00 %-1.70 °C 
13:45:002.80 °C1027.60 hPa75.00 %-1.20 °C 
13:30:002.80 °C1027.80 hPa76.00 %-1.00 °C 
13:15:002.40 °C1027.70 hPa77.00 %-1.20 °C 
13:00:002.40 °C1027.80 hPa78.00 %-1.00 °C 
12:45:002.60 °C1027.80 hPa80.00 %-0.50 °C 
12:30:002.70 °C1027.70 hPa82.00 %-0.10 °C 
12:15:002.80 °C1027.90 hPa84.00 %0.40 °C 
12:00:002.70 °C1028.10 hPa86.00 %0.60 °C 
11:45:002.40 °C1028.10 hPa88.00 %0.60 °C 
11:30:001.90 °C1028.00 hPa90.00 %0.40 °C 
11:15:001.60 °C1027.90 hPa91.00 %0.30 °C 
11:00:001.10 °C1027.90 hPa92.00 %-0.10 °C 
10:45:000.40 °C1027.80 hPa93.00 %-0.60 °C 
10:30:00-0.70 °C1027.60 hPa93.00 %-1.80 °C 
10:15:00-1.60 °C1027.70 hPa93.00 %-2.70 °C 
10:00:00-2.80 °C1027.80 hPa93.00 %-3.90 °C 
09:45:00-4.10 °C1027.80 hPa93.00 %-5.20 °C 
09:30:00-5.20 °C1027.60 hPa93.00 %-6.30 °C 
09:15:00-6.20 °C1027.70 hPa92.00 %-7.40 °C 
09:00:00-6.90 °C1027.90 hPa92.00 %-8.10 °C 
08:45:00-7.80 °C1027.80 hPa92.00 %-9.00 °C 
08:30:00-8.70 °C1027.60 hPa91.00 %-10.00 °C 
08:15:00-8.60 °C1027.50 hPa91.00 %-10.00 °C 
08:00:00-8.40 °C1027.40 hPa91.00 %-9.80 °C 
07:45:00-8.60 °C1027.20 hPa91.00 %-10.00 °C 
07:30:00-8.80 °C1027.10 hPa91.00 %-10.10 °C 
07:15:00-8.90 °C1026.90 hPa91.00 %-10.20 °C 
07:00:00-8.70 °C1026.80 hPa91.00 %-10.00 °C 
06:45:00-9.00 °C1026.70 hPa91.00 %-10.30 °C 
06:30:00-9.00 °C1026.60 hPa91.00 %-10.30 °C 
06:15:00-8.90 °C1026.50 hPa91.00 %-10.20 °C 
06:00:00-8.70 °C1026.40 hPa91.00 %-10.00 °C 
05:45:00-9.00 °C1026.20 hPa91.00 %-10.30 °C 
05:30:00-9.10 °C1026.30 hPa91.00 %-10.40 °C 
05:15:00-9.10 °C1026.00 hPa91.00 %-10.40 °C 
05:00:00-9.20 °C1026.10 hPa90.00 %-10.70 °C 
04:45:00-9.10 °C1026.30 hPa91.00 %-10.40 °C 
04:30:00-9.10 °C1026.40 hPa91.00 %-10.40 °C 
04:15:00-9.10 °C1026.40 hPa91.00 %-10.40 °C 
04:00:00-9.10 °C1026.30 hPa91.00 %-10.40 °C 
03:45:00-9.20 °C1026.20 hPa90.00 %-10.70 °C 
03:30:00-9.50 °C1026.20 hPa90.00 %-11.00 °C 
03:15:00-9.80 °C1026.20 hPa90.00 %-11.30 °C 
03:00:00-9.90 °C1026.20 hPa90.00 %-11.40 °C 
02:45:00-9.70 °C1026.20 hPa90.00 %-11.20 °C 
02:30:00-9.90 °C1026.20 hPa90.00 %-11.40 °C 
02:15:00-9.60 °C1026.10 hPa90.00 %-11.10 °C 
02:00:00-9.40 °C1026.10 hPa90.00 %-10.90 °C 
01:45:00-8.90 °C1025.90 hPa90.00 %-10.40 °C 
01:30:00-8.20 °C1025.90 hPa90.00 %-9.70 °C 
01:15:00-8.20 °C1025.90 hPa90.00 %-9.70 °C 
01:00:00-8.40 °C1025.90 hPa90.00 %-9.90 °C 
00:45:00-8.40 °C1025.80 hPa90.00 %-9.90 °C 
00:30:00-8.60 °C1026.00 hPa90.00 %-10.10 °C 
00:15:00-9.00 °C1026.20 hPa89.00 %-10.70 °C 
00:00:00-8.90 °C1026.20 hPa89.00 %-10.60 °C 

Permanenter Link zu dieser Seite: Wetter im Erzgebirge am 14.11.2016
Performance-Info: Die Erstellung der Seite / Statistik(en) / Tabelle(n) erforderte 5 Datenbankserver-Abfrage(n) und dauerte 124 Millisekunden. (Dieser Messwert ist von der Gesamt-Auslastung des Servers abhängig.)
Erzgebirge - Wetter | Erzgebirge - Wetter (Mobilgeräte) | Komplette Klimadatenbank